Wind_Speed
18 18 19 19 19 18 18 18 18 17 17 16 14 13 12 12 11 11 10 9 9 9 8 8 7 6 6 7 8 10 10 9 11 15 15 14 13 13 11 10 10 13 18 20 19 18 18 17 17 17 16 16 17 17 16 15 14 13 15 16 15 14 13 11 11 10 9 8 8 8 8 8 7 8 10 11 11 11 10 10 10 9 9 8 8 7 7 8
19 19 19 19 19 19 19 19 18 18 18 17 16 15 15 14 14 13 13 11 10 10 9 9 9 8 6 6 7 9 11 10 10 12 13 15 16 14 12 13 14 16 19 21 21 20 20 20 19 20 19 18 19 18 18 17 16 16 16 17 16 15 14 13 12 12 10 9 8 8 10 10 9 8 9 10 12 12 12 11 10 9 9 9 7 7 7 7
21 21 20 20 20 20 20 20 20 19 18 18 17 17 16 16 16 16 15 14 12 11 11 11 10 9 7 6 6 8 10 11 11 9 11 16 17 16 14 14 16 18 20 22 24 24 23 23 23 23 22 22 21 20 19 19 18 17 18 18 17 16 16 15 14 13 12 10 8 7 10 10 9 10 9 10 11 13 12 12 11 10 9 8 7 7 7 7
22 22 22 21 21 21 21 21 21 21 20 19 18 17 17 17 18 18 17 15 14 12 12 12 11 11 10 7 6 7 9 11 12 10 10 14 17 18 17 17 18 18 20 21 22 22 24 25 25 24 24 23 22 21 20 20 19 19 19 19 18 17 17 17 15 13 12 10 8 7 8 10 10 11 10 9 10 12 12 12 12 11 9 8 7 7 7 7
22 22 22 22 22 22 21 21 22 22 21 20 19 18 18 18 18 18 18 16 15 14 13 13 12 12 12 10 7 7 9 10 11 11 11 12 14 18 19 19 19 18 18 19 19 20 21 22 23 22 22 21 20 20 20 20 20 19 20 19 19 18 17 17 16 14 12 11 9 7 8 10 10 11 11 10 11 11 12 12 12 11 10 8 7 6 7 7
22 22 22 22 22 22 22 22 22 22 22 21 20 20 19 19 19 19 18 17 15 14 14 14 14 13 13 13 10 8 8 8 9 12 12 11 11 15 18 20 19 18 17 17 18 18 19 19 19 19 20 20 19 19 21 22 21 20 21 20 19 19 17 17 16 14 12 11 11 9 8 8 9 11 12 13 12 11 12 12 12 11 10 9 6 5 6 7
22 22 22 22 22 22 22 22 22 22 22 21 21 21 21 21 21 20 19 18 17 16 15 15 15 14 14 14 12 11 8 6 9 11 11 10 11 12 16 19 20 19 16 15 16 17 18 18 17 18 20 20 19 20 22 22 21 21 21 20 18 18 17 15 14 14 13 13 12 10 9 8 8 9 11 13 11 11 13 12 12 11 10 9 7 6 6 7
23 23 22 22 22 22 21 21 21 22 22 21 21 21 22 23 22 21 20 19 18 18 17 17 17 16 15 15 14 12 9 7 11 12 10 11 12 12 14 17 20 21 19 17 17 18 19 19 19 20 19 19 21 22 23 23 22 21 22 20 18 17 16 14 13 13 13 13 12 11 10 8 9 9 10 12 10 11 13 12 11 11 9 9 8 7 6 7
23 23 23 23 22 22 21 21 21 22 21 21 20 22 23 24 23 22 22 21 20 20 19 18 18 18 17 16 15 13 10 9 12 12 11 12 12 12 13 15 19 22 22 21 20 19 18 19 20 21 21 22 23 23 24 25 23 23 24 21 19 17 16 14 14 14 13 13 12 11 10 9 10 10 10 11 11 12 12 11 11 11 10 8 8 8 7 6
25 24 24 23 23 23 22 22 22 22 21 21 20 21 22 23 24 23 23 23 22 22 21 20 20 20 19 18 17 15 11 10 13 14 12 12 13 13 12 13 16 20 24 24 22 19 18 20 23 24 24 25 26 26 27 27 25 25 25 22 19 17 16 16 16 14 13 13 13 12 11 10 10 11 10 10 11 10 9 9 10 9 9 8 8 8 8 7
27 27 26 25 24 24 23 23 23 23 22 21 21 21 22 23 23 24 24 24 24 24 23 22 21 21 21 19 18 16 14 13 13 15 14 13 14 13 12 13 14 17 22 25 24 23 22 23 25 25 25 25 26 29 29 28 26 26 26 23 20 18 17 19 17 16 14 14 13 11 9 9 10 11 11 10 9 8 7 7 7 7 7 7 8 8 9 8
30 30 29 28 27 25 25 25 25 24 24 23 22 22 22 22 23 23 24 25 25 25 25 24 23 23 22 22 20 17 16 16 15 17 17 15 15 14 13 13 13 15 19 24 26 26 26 25 24 25 25 24 26 29 29 28 27 28 26 23 22 19 18 19 18 16 15 13 11 9 9 9 10 11 12 11 9 8 7 6 5 5 5 6 7 7 8 8
32 32 32 31 30 28 27 27 27 26 26 25 23 23 23 22 23 23 24 25 25 25 26 25 25 25 24 24 21 19 19 18 17 18 19 18 16 15 15 14 13 14 16 21 26 28 27 26 25 26 25 24 27 27 25 26 27 28 26 24 23 19 18 20 20 18 15 12 10 10 10 10 11 13 12 12 11 9 7 7 7 5 4 5 5 6 7 8
34 35 35 34 34 32 31 31 30 30 29 28 26 25 25 24 23 24 23 24 25 25 26 26 26 26 25 26 23 20 21 20 18 20 21 20 18 15 15 16 16 15 15 18 22 26 27 26 27 28 26 27 27 24 24 26 26 27 26 24 23 21 20 20 20 20 17 14 11 11 12 10 11 14 14 13 12 10 8 7 8 6 4 4 4 5 6 7
36 37 37 36 36 35 34 34 34 33 32 31 30 29 28 27 25 25 24 24 24 25 26 27 27 26 26 28 26 23 23 22 20 21 22 21 19 16 17 19 18 16 15 15 18 23 26 27 28 28 27 27 24 22 26 27 26 26 24 23 23 23 22 21 21 22 21 18 13 12 14 12 12 15 15 14 13 11 9 9 9 7 5 4 3 4 6 7
38 39 39 39 38 37 37 37 37 37 37 35 34 32 31 30 29 28 27 26 25 25 26 26 27 28 27 28 28 25 25 25 23 22 22 22 20 18 18 20 18 16 15 15 16 20 23 26 28 27 27 27 24 25 27 27 27 25 22 23 24 24 24 23 24 25 24 21 16 14 16 14 14 17 17 15 14 13 11 10 11 9 7 5 4 3 4 7
40 41 41 41 41 40 39 39 38 39 39 38 37 36 35 33 32 31 30 29 28 26 26 26 27 28 27 29 30 28 27 27 25 23 24 24 22 20 20 20 19 18 18 17 16 17 19 23 25 26 27 26 26 27 27 25 25 24 23 23 23 24 26 26 27 26 26 24 18 16 19 18 16 18 18 17 16 14 12 12 13 12 9 7 5 4 4 6
41 42 43 43 44 43 42 41 40 40 41 41 40 39 38 37 35 34 33 32 31 30 29 27 27 28 27 29 32 30 29 29 27 26 27 26 24 23 21 21 20 20 19 19 17 17 17 19 21 24 26 27 28 27 25 22 24 25 24 23 21 22 25 27 28 28 27 26 21 18 20 21 19 20 20 20 18 16 15 14 14 14 12 9 6 5 5 5
41 42 43 44 45 45 45 44 43 42 43 43 42 42 41 40 39 37 36 35 34 33 32 29 28 28 27 29 32 31 31 31 30 29 29 28 28 26 24 23 21 20 20 19 18 18 17 17 18 20 22 25 26 25 24 23 24 24 23 24 23 22 26 28 29 29 27 26 23 20 22 24 24 24 23 21 20 18 16 14 14 14 13 11 9 7 6 5
41 41 42 44 45 47 47 47 46 45 44 44 44 44 43 43 42 41 39 38 36 35 35 32 30 30 28 29 31 32 32 33 32 31 30 31 30 29 27 25 23 22 20 19 19 18 19 18 16 15 16 20 24 25 26 27 25 23 22 22 23 24 26 29 31 28 27 27 25 22 25 27 27 27 25 24 22 20 17 15 15 15 14 14 12 9 7 6
41 41 41 42 44 46 47 48 48 48 47 46 46 46 45 45 45 44 42 41 40 38 37 35 34 32 31 31 31 32 33 33 34 32 32 33 33 32 29 26 25 23 21 21 20 21 21 17 13 14 16 20 23 24 27 28 26 25 23 23 26 26 24 30 34 29 27 29 27 25 26 28 29 29 28 26 23 21 19 17 17 17 16 16 15 13 11 9
42 41 41 42 43 45 46 47 48 48 49 48 48 48 48 47 47 46 45 43 43 42 39 37 36 34 33 35 34 34 35 33 34 34 33 34 34 33 30 28 27 24 24 24 23 22 20 13 12 17 20 22 24 25 28 28 26 26 27 28 28 25 23 31 34 28 28 31 28 28 28 30 32 31 30 28 25 24 22 20 20 19 18 17 17 17 15 13
44 43 43 43 44 44 45 47 48 48 49 49 49 50 50 49 49 48 48 46 44 44 43 40 38 36 36 38 38 38 36 34 35 34 33 34 34 33 32 30 28 27 27 25 22 21 18 15 17 20 22 25 26 28 30 30 30 30 31 31 26 25 27 30 32 30 32 33 30 30 30 31 33 33 31 29 27 26 25 23 22 20 19 19 19 20 19 19
47 47 46 45 46 46 46 47 48 48 49 49 49 50 50 51 51 50 50 49 45 44 46 45 41 38 38 39 40 40 37 36 37 34 34 35 34 34 32 30 30 31 28 24 24 23 20 21 24 24 24 26 27 29 30 30 32 32 33 31 27 28 29 29 34 36 33 33 31 31 31 30 35 36 32 31 30 29 28 26 24 21 20 20 21 20 20 20
50 49 50 49 49 49 48 48 49 49 49 49 49 50 50 51 52 52 52 52 49 44 45 48 46 42 40 40 42 42 40 39 37 35 36 36 35 34 32 32 34 32 27 27 28 26 24 25 27 28 27 25 25 26 27 28 30 31 32 30 29 31 31 31 35 33 30 33 33 35 34 29 34 37 35 35 35 33 31 29 25 22 21 20 18 17 17 18
53 52 53 53 53 52 51 51 51 51 51 51 50 49 50 51 52 53 53 53 53 48 45 48 49 46 42 41 43 44 44 41 38 38 38 36 36 35 34 35 35 32 28 30 31 29 28 26 27 29 28 27 25 24 24 26 29 30 31 31 32 34 33 32 31 29 31 35 36 40 37 28 30 38 41 40 37 35 34 31 27 24 21 18 16 16 17 18
56 55 55 56 56 56 55 53 53 53 53 54 53 51 50 51 51 52 53 54 55 52 47 47 49 49 46 44 43 45 47 43 40 43 40 37 38 37 37 37 35 32 31 33 34 29 27 27 27 28 28 28 26 22 23 25 25 27 30 32 34 34 33 32 31 32 34 36 40 43 38 32 31 38 45 42 37 37 36 32 29 25 22 19 17 18 18 19
60 59 58 59 59 59 58 57 55 54 54 55 55 54 52 51 51 51 52 53 55 54 50 49 49 50 49 46 45 47 48 43 42 44 41 39 40 40 40 38 33 32 33 36 33 25 26 28 27 27 29 28 24 22 24 24 23 25 29 32 33 34 34 34 35 36 37 39 44 42 38 37 29 33 45 44 39 40 37 33 30 27 24 22 20 20 20 20
63 62 61 62 62 62 62 61 58 56 55 55 55 56 55 54 52 52 52 53 55 55 53 51 50 51 50 48 47 48 49 46 44 45 44 42 42 41 41 37 34 34 36 38 33 30 32 29 27 32 34 30 27 28 30 27 25 26 28 29 34 37 37 39 40 39 40 43 44 41 40 39 26 27 42 45 42 42 38 34 31 28 26 24 23 22 21 21
68 68 67 66 65 65 64 63 62 60 57 56 55 56 56 57 55 54 55 54 53 53 54 54 53 52 50 49 48 48 49 49 47 46 47 46 43 42 42 40 39 39 40 39 36 37 37 32 33 38 36 33 33 35 35 32 30 29 27 29 36 39 40 43 43 43 44 42 40 39 40 40 27 23 37 45 43 41 38 34 31 30 28 26 25 24 23 22
75 74 73 72 71 70 68 66 66 64 61 59 57 56 56 57 57 57 57 54 52 53 55 56 55 52 51 50 49 48 49 51 49 48 49 49 46 45 44 43 42 42 42 41 38 39 39 36 37 37 34 34 37 38 37 35 34 32 29 32 36 39 40 43 44 44 43 38 37 36 37 40 26 16 29 41 41 39 38 35 33 31 30 28 27 26 25 23
77 78 78 78 77 77 75 73 70 67 65 63 60 58 57 58 59 59 57 54 53 56 57 56 56 54 52 51 50 49 49 50 51 50 50 50 49 48 46 45 44 43 43 40 38 40 39 38 39 37 33 34 38 39 37 37 36 33 32 33 34 36 38 39 40 41 37 34 35 33 36 37 22 11 23 34 37 40 39 36 34 33 31 30 29 28 26 25
74 74 75 76 78 78 78 77 75 72 70 67 64 61 59 59 59 59 58 57 58 58 57 56 56 55 52 51 51 49 48 50 51 51 50 51 50 48 47 46 46 44 42 40 39 39 39 39 41 40 36 35 37 37 35 35 35 34 33 33 32 33 34 33 35 35 34 33 33 32 33 30 19 15 21 23 28 38 40 36 35 34 33 32 30 29 28 27
68 68 68 70 72 73 74 75 74 74 72 69 66 63 62 61 60 60 61 62 62 59 58 57 56 55 53 51 51 50 49 50 51 51 51 51 52 51 49 50 49 46 44 44 42 40 40 39 39 38 36 35 35 33 31 31 33 33 32 32 32 32 29 28 30 31 31 33 32 29 25 21 19 18 15 15 22 34 40 37 35 36 34 33 32 31 29 28
64 64 64 64 65 66 67 68 69 69 69 68 65 62 62 61 60 63 64 64 63 61 60 59 57 56 55 53 52 50 50 50 51 52 52 52 52 51 50 50 51 49 48 49 46 43 42 40 37 35 35 36 35 33 32 32 32 32 33 34 34 30 27 28 30 29 30 31 29 22 15 15 18 12 8 13 21 31 40 39 36 36 35 35 34 32 30 28
61 61 60 59 58 58 58 59 61 62 62 62 60 58 58 58 61 66 67 65 64 63 61 59 59 58 57 56 55 52 52 52 50 51 53 53 52 52 51 51 52 53 53 52 49 46 44 43 41 37 36 38 38 36 36 35 33 33 34 33 29 27 30 31 31 30 29 29 25 19 15 16 16 10 10 16 22 28 36 38 36 36 36 37 36 33 30 28
58 58 57 55 53 51 50 49 50 52 52 53 53 52 52 56 61 65 66 66 65 64 62 60 61 62 61 60 59 57 54 52 51 51 52 54 55 56 55 53 53 54 54 53 52 49 46 46 46 41 38 39 38 38 40 39 37 37 36 30 28 33 36 34 33 32 29 27 23 19 17 16 15 13 15 20 25 28 33 35 35 35 37 39 37 34 31 29
58 57 56 54 51 47 45 42 41 41 40 40 43 45 46 51 57 62 65 66 66 66 66 64 64 64 64 65 64 61 55 53 53 51 53 56 58 58 57 54 53 53 52 52 53 52 49 49 49 44 40 40 40 42 45 44 42 42 38 34 35 37 36 35 34 30 27 25 20 17 17 14 13 16 18 22 26 28 31 34 35 36 39 40 38 35 32 31
59 57 55 53 50 46 43 39 37 34 31 31 34 37 40 44 50 56 61 65 67 68 68 67 67 67 67 67 67 63 58 57 57 54 57 61 60 60 59 57 55 53 52 53 54 54 51 50 51 47 43 43 45 48 49 47 46 45 43 42 42 39 36 35 33 29 27 24 19 17 15 12 15 19 20 22 26 29 31 34 35 36 39 40 38 36 34 32
60 57 54 52 49 46 41 36 32 28 26 27 28 30 33 37 41 48 56 62 66 69 70 69 70 70 69 69 68 65 61 61 59 58 59 61 60 60 60 58 57 54 53 54 55 55 52 51 52 50 47 48 49 50 49 48 48 48 46 47 45 41 38 36 34 32 29 24 19 17 13 12 16 19 21 25 29 32 34 35 36 37 39 41 40 37 35 33
60 58 55 50 45 40 34 28 24 23 23 23 22 23 27 30 33 39 49 58 64 68 70 71 71 71 71 71 70 67 64 63 62 61 61 60 60 61 61 60 58 56 55 55 56 57 54 53 54 52 50 50 50 50 49 49 50 47 45 46 43 40 38 37 36 34 29 24 19 15 13 12 15 20 25 28 31 34 37 37 37 38 39 41 40 38 35 33
60 60 55 47 38 30 24 20 19 19 19 19 21 22 25 27 28 31 40 52 60 65 69 71 71 71 71 71 71 69 67 65 65 64 64 63 63 62 61 61 60 58 57 57 59 59 57 56 55 54 51 49 50 52 51 50 48 46 46 46 44 41 40 40 39 35 31 27 22 18 15 11 15 24 28 28 31 35 37 38 38 37 38 38 39 38 36 33
58 60 55 44 33 25 20 17 17 17 18 19 20 21 22 23 24 24 31 44 55 61 65 68 69 70 70 71 72 71 69 68 67 67 67 66 65 64 63 62 61 61 60 61 62 59 57 57 56 55 54 52 54 55 53 51 50 49 50 49 47 46 44 43 41 37 33 31 28 26 19 13 17 26 25 24 28 32 35 37 37 37 37 37 38 39 37 34
56 57 52 42 33 26 21 18 16 16 17 18 19 20 20 21 21 21 25 36 47 55 59 62 66 69 70 72 73 72 70 70 69 69 69 68 67 66 66 65 64 64 63 63 63 59 59 59 57 57 58 57 58 58 55 54 54 53 52 51 49 48 48 47 45 41 39 37 35 32 25 20 23 25 21 22 25 28 31 35 36 37 38 38 39 39 39 36
53 53 49 41 34 28 23 19 17 15 16 18 19 20 20 21 21 20 22 29 39 48 53 54 58 64 68 71 72 71 70 70 71 71 70 70 69 68 68 67 66 66 65 64 63 61 61 62 60 61 61 59 59 60 58 57 56 55 54 53 51 50 50 50 48 45 44 41 38 34 30 28 27 23 20 23 25 26 29 32 35 37 38 40 41 41 40 38
51 50 47 40 33 29 25 21 18 17 17 18 19 19 18 18 19 19 19 24 31 39 46 48 50 55 61 65 67 69 69 70 72 74 73 72 72 70 70 70 69 68 67 65 64 63 63 64 63 63 63 61 61 61 59 58 58 57 56 55 53 52 51 50 48 48 45 41 39 36 33 32 31 26 24 25 25 26 28 30 33 36 37 39 41 42 42 40
49 48 45 40 33 29 25 22 20 20 19 19 19 17 17 17 17 17 17 19 25 31 36 39 40 43 50 57 62 66 69 71 72 74 75 75 74 73 72 72 71 70 69 68 67 65 65 65 64 63 64 63 63 62 61 60 60 59 57 56 54 52 50 48 48 48 45 42 40 36 33 32 32 30 28 27 26 27 27 29 31 33 35 37 38 40 41 41
47 46 44 40 35 29 26 23 21 21 20 20 19 17 16 16 15 14 14 15 21 28 30 30 29 30 36 46 55 62 67 70 72 75 76 76 76 75 75 74 73 72 71 70 69 68 66 66 66 65 65 64 63 62 61 61 61 59 58 57 54 52 50 48 49 48 46 44 42 37 34 33 31 30 28 27 27 27 27 28 29 29 31 32 33 36 38 41
45 43 41 39 36 31 27 25 22 20 20 21 20 18 16 15 15 13 11 11 16 26 32 31 28 25 24 30 42 54 63 67 71 76 77 77 78 77 77 77 76 74 73 72 71 70 69 68 67 66 66 65 65 64 62 62 61 60 59 58 55 53 52 50 50 49 47 46 44 39 36 36 34 31 29 28 28 29 28 28 28 28 29 29 30 31 33 36
45 42 39 37 35 31 28 25 22 20 20 21 20 19 17 15 14 13 10 9 12 20 29 33 32 29 26 26 32 45 57 65 72 77 78 77 78 79 79 79 78 76 75 74 72 71 71 70 68 67 67 67 66 65 64 63 62 61 61 59 57 56 55 53 52 49 48 47 43 39 38 38 35 32 31 29 29 29 29 28 28 28 29 29 29 30 29 30
44 42 39 36 34 31 27 25 22 20 19 19 19 19 17 15 14 12 11 9 10 14 19 26 31 32 31 31 32 40 51 62 70 76 78 78 79 81 81 80 79 78 77 76 74 73 73 73 70 68 68 69 68 67 66 66 64 64 63 61 59 58 57 56 54 51 49 48 44 40 39 38 35 34 33 32 31 30 31 30 29 28 28 28 28 28 28 28
45 42 38 35 33 31 27 24 22 20 19 18 18 18 17 16 14 12 11 10 10 12 13 15 23 30 32 31 32 36 44 55 65 72 76 78 79 80 81 81 80 79 79 77 76 75 75 74 73 71 70 70 71 70 68 67 66 65 64 62 60 59 58 56 55 53 51 50 46 42 41 39 37 35 35 34 33 32 32 31 30 30 30 28 27 26 26 27
Wind_Direction
297 296 296 296 296 296 297 297 297 297 297 297 297 295 292 289 287 286 285 286 287 287 287 291 293 287 275 266 263 263 262 250 232 224 222 220 217 219 211 201 199 201 215 225 225 222 222 219 215 212 206 199 197 197 195 190 184 186 186 178 172 172 185 201 204 198 201 213 222 223 218 209 199 197 202 203 195 189 197 205 199 191 185 180 177 180 184 172
295 294 292 292 291 291 291 291 291 292 293 294 295 294 293 290 286 283 280 279 280 282 283 282 283 286 280 266 259 258 261 259 246 230 221 219 218 218 207 199 200 200 205 214 219 219 219 218 216 214 211 205 201 200 200 197 190 190 194 190 183 182 187 201 211 207 203 212 222 221 216 212 200 197 198 198 198 194 195 200 195 190 187 180 176 181 191 189
294 293 292 291 289 289 288 287 287 286 288 289 291 292 291 290 287 283 281 279 278 278 279 277 276 278 277 267 257 256 258 258 257 243 220 220 220 218 212 205 209 211 210 212 214 214 215 216 217 214 212 209 204 203 203 200 197 198 202 199 195 193 193 202 214 216 212 214 223 224 219 216 204 198 195 194 199 198 197 197 192 190 190 186 182 185 194 195
293 292 292 290 289 288 286 285 284 283 282 283 285 286 286 286 285 283 281 281 280 278 276 274 271 272 273 266 255 255 257 257 260 256 233 224 221 218 214 212 216 218 219 222 221 219 218 218 219 217 215 212 206 202 203 204 203 205 207 205 203 203 201 205 213 219 219 219 225 226 220 218 213 202 191 186 193 199 202 201 194 187 186 188 190 193 198 197
293 292 291 290 289 287 286 284 283 282 280 280 280 280 281 280 279 279 279 280 280 278 275 273 268 267 270 265 255 250 254 261 263 261 250 233 224 221 217 216 221 223 223 225 227 227 226 226 226 225 223 220 212 204 203 207 208 210 212 209 207 207 206 208 212 219 223 223 226 225 217 217 217 206 194 185 185 192 200 201 194 184 179 181 189 197 200 199
295 294 292 291 289 287 286 284 282 281 279 278 277 276 276 274 274 273 275 275 275 274 272 272 268 264 265 265 259 248 252 267 265 258 256 248 233 225 221 220 222 225 224 223 225 227 228 230 232 231 228 225 218 208 206 210 211 214 216 213 209 208 208 210 211 217 222 224 226 225 219 218 214 205 200 193 187 192 198 198 192 183 179 176 179 193 197 195
295 294 294 293 291 289 287 285 282 280 279 278 276 274 272 270 269 269 269 269 268 269 269 269 268 264 262 263 260 251 248 261 259 255 257 253 241 229 222 221 222 223 222 221 222 224 227 230 232 230 227 224 218 211 209 212 212 216 220 217 213 208 208 210 208 213 219 222 226 226 219 212 203 196 198 197 195 203 201 196 191 184 184 182 178 183 198 195
293 293 292 292 291 290 288 287 284 281 279 277 275 272 270 268 267 266 264 262 261 263 264 265 266 264 261 259 259 254 248 250 251 250 251 250 244 235 226 220 219 221 220 217 218 220 221 221 225 226 225 221 217 212 209 211 211 215 221 219 214 210 209 207 205 209 217 222 225 223 219 210 197 189 192 192 193 205 202 198 197 189 188 190 182 175 193 201
290 290 290 289 289 288 287 287 285 284 282 279 276 272 269 267 266 264 262 259 257 258 260 261 262 263 260 257 255 252 250 249 249 247 244 250 251 242 234 225 220 220 219 218 218 219 218 215 217 219 219 217 215 212 209 210 208 211 220 218 215 212 205 200 202 209 218 225 223 221 219 209 199 190 189 189 190 198 199 201 201 192 184 184 182 175 183 199
286 286 286 286 286 285 285 284 284 283 283 281 278 274 271 269 267 264 262 258 255 255 256 258 259 260 259 257 253 249 249 246 247 250 243 246 253 248 240 232 225 221 220 221 220 220 219 215 213 213 215 214 211 211 211 212 209 211 218 217 216 214 200 195 202 212 221 226 222 223 221 208 199 191 188 192 193 197 199 200 202 192 178 173 180 181 181 192
283 282 282 281 281 282 281 281 281 280 281 280 278 276 273 271 268 265 263 260 256 253 253 255 256 257 257 256 252 248 248 244 243 250 247 241 247 250 247 239 231 225 222 222 219 218 216 214 213 213 215 214 212 213 214 213 209 212 218 216 216 213 200 195 202 212 217 221 220 221 221 210 201 192 192 197 193 194 200 202 206 200 183 171 174 183 186 190
282 281 279 278 277 277 278 278 278 277 277 277 276 275 273 272 270 267 264 261 259 255 253 252 253 253 255 255 251 248 249 245 239 245 247 241 240 246 249 246 238 230 226 222 219 218 216 216 215 214 217 216 215 217 219 216 212 215 219 216 216 212 200 197 202 209 210 212 214 208 212 218 215 205 197 197 195 194 197 195 199 203 193 175 169 177 185 187
281 280 279 277 276 274 274 275 275 274 274 274 274 273 272 271 270 268 266 263 260 257 255 252 251 250 252 253 250 247 248 246 240 240 245 245 241 240 244 247 244 235 229 224 222 221 220 218 216 216 218 215 217 221 223 219 216 220 221 216 216 210 201 200 201 205 203 199 198 195 205 219 224 218 205 196 197 198 195 189 187 191 197 185 170 172 178 181
280 279 278 277 275 274 273 273 273 272 272 272 271 271 270 269 268 268 266 264 262 259 256 254 251 249 249 251 248 245 247 247 241 238 242 246 244 236 236 242 243 239 232 227 226 224 223 220 217 220 218 216 221 223 223 221 218 221 222 218 217 210 204 203 201 200 198 191 189 202 213 218 218 217 209 198 197 197 188 180 176 174 181 188 179 173 173 175
279 278 277 276 275 273 273 272 272 272 271 270 269 268 268 267 267 267 265 265 263 260 258 255 253 249 247 249 248 244 245 246 242 238 241 246 245 236 232 237 241 241 238 233 229 226 225 223 222 223 223 224 227 223 222 223 220 223 224 219 217 214 208 206 202 201 201 195 191 208 221 224 221 217 211 201 197 195 185 174 168 161 162 171 172 170 171 172
279 278 277 276 274 273 271 270 270 270 270 269 268 267 266 265 265 264 264 264 262 261 259 256 254 251 247 249 248 243 243 245 240 238 243 246 245 237 232 236 240 240 240 237 232 229 227 226 225 225 226 229 228 224 225 226 224 225 225 220 217 215 210 210 209 205 206 204 197 206 217 220 218 215 210 202 199 196 186 176 167 160 158 157 148 151 169 172
279 278 277 276 274 273 271 270 268 268 268 267 267 266 266 264 263 262 262 262 261 260 258 256 255 253 249 249 248 244 242 243 240 239 244 244 243 240 235 235 235 235 235 234 234 233 231 229 228 227 227 230 230 228 228 229 228 227 225 223 221 216 210 211 214 210 210 211 206 206 214 219 217 214 211 202 201 198 190 182 172 165 160 154 144 135 150 169
280 279 277 276 275 273 272 270 268 267 266 266 265 265 265 264 262 261 261 260 259 258 257 256 254 253 251 249 249 246 243 243 240 238 242 243 242 241 238 234 232 232 234 235 236 235 233 231 229 227 226 227 229 231 232 233 231 228 228 227 225 220 213 214 220 217 214 216 215 208 212 221 218 216 214 204 201 200 196 192 181 172 163 154 145 132 132 155
281 280 278 277 275 273 271 270 269 267 266 265 264 263 263 263 262 261 260 259 257 256 256 254 254 253 251 249 250 248 245 244 240 237 239 242 242 241 239 237 235 235 235 235 235 234 233 231 228 229 229 229 231 233 235 235 232 230 231 230 228 222 215 217 224 223 218 220 220 211 210 215 212 213 215 207 201 201 202 199 187 178 168 159 152 140 136 145
282 281 280 278 276 274 272 270 269 267 266 265 264 263 262 261 261 260 259 259 257 256 255 253 251 252 251 250 250 249 246 244 242 238 238 240 241 241 239 238 238 237 236 235 234 231 231 231 230 231 231 230 231 232 233 234 232 232 232 231 230 227 219 219 226 226 222 223 221 214 211 212 212 212 213 209 203 202 203 197 187 182 176 169 162 152 148 149
285 283 282 281 278 275 273 271 269 267 266 264 263 263 261 260 260 259 258 258 257 255 254 252 250 249 250 250 249 249 246 244 244 241 238 238 240 240 239 239 239 237 237 236 232 228 228 229 228 224 218 217 221 224 228 230 229 228 230 230 230 230 224 223 228 228 226 226 222 219 214 210 212 210 210 211 206 201 198 194 190 187 184 179 171 163 156 157
287 286 286 284 282 279 276 273 271 269 267 264 262 262 261 260 259 258 257 256 257 255 253 252 250 247 246 248 247 247 246 244 243 241 239 239 239 241 240 239 238 237 237 234 231 230 228 220 215 216 212 211 211 213 220 224 222 222 224 225 224 226 226 227 233 234 231 231 226 223 217 209 211 212 210 210 206 201 195 192 194 193 191 187 179 171 163 163
288 288 287 287 286 283 280 277 274 272 269 266 263 261 260 259 258 257 256 254 255 256 254 252 250 247 245 246 246 246 246 245 244 243 242 241 240 241 239 236 236 235 234 233 234 233 224 211 212 213 212 212 210 210 214 216 215 214 216 217 214 218 223 226 234 234 232 234 231 228 223 212 213 214 211 209 205 199 195 194 197 198 196 195 190 182 174 171
287 286 286 286 286 285 283 281 278 275 272 269 266 263 260 259 257 256 255 253 252 253 255 252 249 246 244 244 245 245 245 244 244 243 242 241 240 239 237 235 235 233 231 231 233 230 219 213 214 214 213 214 213 215 217 215 214 212 212 212 208 214 219 220 229 230 229 236 236 236 233 218 213 214 209 208 205 198 196 198 200 201 201 201 200 194 187 181
285 284 283 283 283 282 282 282 280 278 276 273 269 266 262 260 258 256 255 253 250 249 252 253 250 245 243 243 245 245 243 242 243 242 241 241 241 240 238 235 233 231 229 230 232 228 221 217 217 219 218 217 218 220 221 219 217 215 213 211 209 214 216 217 225 228 227 234 238 239 238 222 212 212 208 209 207 198 197 200 200 203 205 204 203 199 199 194
284 282 281 280 279 280 279 278 278 278 277 275 272 269 266 262 259 257 255 253 251 247 247 250 251 248 243 242 244 244 243 240 240 241 240 239 240 240 238 235 233 231 229 230 231 227 223 220 219 223 223 222 224 224 224 223 220 217 214 212 212 214 213 215 222 225 225 229 234 238 238 226 212 210 210 212 209 200 198 201 201 203 204 201 199 200 203 203
282 280 279 278 277 277 276 275 275 274 274 274 273 271 269 265 262 259 257 255 251 248 246 246 248 248 245 241 241 243 244 240 238 240 239 238 239 239 238 236 233 233 231 230 230 226 225 224 222 225 228 227 228 228 229 228 223 218 215 213 212 212 212 213 217 221 223 224 230 236 238 234 220 209 212 215 209 202 201 203 203 202 201 196 195 200 204 207
282 279 278 277 276 275 274 273 272 271 270 271 271 271 269 267 265 261 258 257 252 248 247 245 244 246 245 241 239 240 243 240 237 240 239 236 237 238 239 238 236 235 234 231 230 227 227 227 222 224 228 227 226 227 227 225 220 217 216 214 212 214 213 212 215 218 220 222 229 235 238 240 229 210 214 217 210 206 205 205 203 201 200 195 194 199 202 206
284 281 278 277 277 275 273 272 270 269 267 266 266 267 267 266 264 262 259 257 253 249 248 247 244 243 243 242 238 238 241 240 237 238 237 234 234 236 238 237 235 234 234 231 227 223 222 220 218 219 222 220 217 220 222 219 215 214 214 211 211 215 213 213 216 216 219 225 230 232 234 241 237 211 214 218 214 211 209 208 205 200 200 196 194 197 199 204
287 285 281 279 278 277 275 273 271 268 266 264 262 262 262 262 261 260 258 256 254 252 249 247 245 242 241 241 238 236 238 239 236 236 236 234 232 233 235 234 232 232 233 231 227 225 221 216 219 220 217 215 215 218 220 217 214 214 210 207 211 215 214 215 217 217 222 231 236 231 230 242 242 212 213 220 218 215 210 209 206 203 202 197 195 196 197 200
292 289 286 282 280 278 276 275 272 269 267 264 262 259 257 257 256 256 256 256 255 252 248 246 244 242 241 240 238 236 235 237 236 234 235 235 231 229 231 232 231 230 232 230 227 227 223 217 223 224 217 216 218 219 220 219 220 218 211 208 212 216 218 220 221 223 229 239 242 234 231 241 241 203 210 221 220 214 210 210 209 206 203 199 197 197 197 197
295 293 289 286 283 280 278 276 273 271 268 265 262 259 255 253 252 252 253 254 252 250 247 246 245 243 241 239 238 236 233 234 235 234 234 235 233 230 231 233 233 232 234 234 231 231 228 220 224 226 220 220 223 221 220 222 224 223 217 214 216 217 220 224 225 229 239 245 245 240 234 240 242 206 214 222 218 214 212 211 210 208 206 202 199 199 199 197
299 296 292 289 285 282 280 277 275 272 269 266 263 259 255 252 250 249 248 247 247 248 247 246 245 244 242 240 238 236 232 231 232 233 232 233 233 230 228 230 232 232 234 235 233 233 233 226 223 225 222 222 226 225 223 225 228 227 224 222 223 223 225 229 229 234 242 245 247 247 241 244 256 244 227 221 213 213 214 211 208 209 209 205 201 200 201 200
305 301 297 292 288 284 281 278 276 273 270 267 263 259 255 252 249 247 245 243 244 246 246 245 244 244 243 241 238 235 233 230 229 230 231 231 231 230 226 226 227 227 228 231 230 230 233 230 225 226 226 225 228 230 227 228 231 231 229 228 228 230 231 234 235 238 243 244 248 251 248 250 259 250 226 210 206 208 212 211 208 210 211 205 203 203 204 203
310 307 303 298 293 288 284 280 277 274 271 267 264 259 255 251 246 244 242 241 240 241 242 243 243 243 243 242 239 236 234 231 228 228 228 229 230 230 228 226 225 224 224 228 228 227 230 230 226 225 227 228 230 231 228 227 229 229 227 227 228 231 234 236 237 239 240 242 245 249 245 245 250 241 195 190 196 202 209 210 208 211 211 207 206 208 209 207
315 312 309 305 300 294 289 284 279 275 272 268 264 259 253 247 242 241 241 240 238 237 237 238 239 240 240 240 239 235 233 231 227 226 226 227 227 227 226 223 222 222 223 226 227 226 227 229 226 220 219 224 227 229 229 228 228 228 227 227 227 228 230 232 235 237 238 241 244 241 231 232 236 218 177 181 187 197 206 207 208 210 211 210 209 212 212 210
321 318 315 312 307 302 296 290 283 277 274 270 266 260 252 245 241 240 239 237 236 235 233 232 233 235 235 236 236 234 232 230 227 225 224 225 224 225 225 222 221 222 223 226 226 224 224 227 228 222 217 221 223 226 228 224 225 227 227 225 224 224 225 227 230 232 233 236 237 231 225 227 224 202 182 178 182 193 201 204 206 209 212 212 211 213 214 212
328 322 320 317 314 310 304 298 291 283 277 271 266 261 254 245 240 238 236 233 232 231 230 228 229 230 231 233 233 232 230 227 225 222 222 223 223 224 225 223 222 222 222 224 225 224 222 224 227 224 220 221 222 225 226 221 220 223 222 221 221 223 224 227 230 231 233 234 233 230 228 223 204 188 181 181 183 188 196 202 205 208 212 213 212 214 214 213
333 327 323 320 318 314 309 304 298 291 283 274 269 265 258 249 241 236 233 230 228 228 227 226 225 226 228 230 232 231 227 225 224 220 219 221 221 222 223 222 221 220 219 220 222 224 221 222 226 223 218 220 221 224 226 223 221 221 218 218 220 220 221 226 229 231 233 234 232 233 228 208 192 188 187 187 184 184 192 199 203 206 211 214 215 214 214 214
337 331 325 321 318 314 310 306 299 292 286 281 277 271 264 255 245 236 231 228 226 225 225 224 223 223 224 226 228 228 225 224 224 221 220 222 222 221 222 222 221 218 218 218 220 223 219 218 224 222 217 219 222 225 227 227 226 224 221 222 223 220 219 223 225 226 227 226 223 223 215 202 195 187 183 185 184 186 192 197 202 205 209 213 215 214 214 215
339 336 330 325 321 315 312 307 297 289 285 280 276 273 269 263 253 240 231 227 225 224 223 222 222 221 221 222 223 223 222 222 222 221 221 221 221 221 220 220 220 217 216 217 218 220 218 215 220 221 217 218 224 226 227 228 229 228 227 229 229 226 224 226 227 225 225 222 216 203 187 192 192 179 180 185 186 189 194 198 203 206 209 212 213 213 213 215
342 341 338 334 331 325 319 311 299 293 287 279 275 275 275 273 265 250 235 228 225 224 222 221 221 220 219 219 220 220 219 219 219 219 220 220 219 220 219 219 219 216 214 215 216 218 217 215 216 219 217 216 221 224 225 227 229 230 230 229 229 228 227 229 228 226 225 224 219 205 185 185 192 184 183 186 188 191 195 197 201 205 208 210 209 209 212 214
345 346 346 345 343 339 331 319 310 303 296 289 286 284 283 279 272 260 243 231 226 225 223 221 220 219 218 217 217 217 216 216 217 218 219 219 219 219 219 218 217 216 213 214 215 215 217 216 214 216 217 214 218 222 222 224 226 227 227 227 225 224 224 226 227 225 223 223 222 218 207 193 184 180 182 189 192 194 196 197 199 202 205 206 205 208 212 214
347 349 351 352 351 347 339 331 325 315 307 303 299 295 293 287 278 268 252 237 229 226 225 222 220 219 218 216 215 214 213 213 214 216 217 218 218 218 218 217 216 216 214 214 215 213 215 217 213 214 216 214 216 219 219 222 224 226 227 227 225 224 223 223 223 220 219 218 217 215 210 196 178 173 181 193 193 194 197 199 200 202 204 205 207 210 214 216
349 352 355 356 355 352 346 340 334 327 317 311 307 303 299 294 287 276 258 242 232 228 227 225 222 220 218 217 215 213 211 211 212 214 215 216 217 217 218 218 217 216 215 215 216 213 213 216 213 213 216 215 216 219 219 221 224 225 227 227 225 224 224 224 223 221 219 217 214 211 206 196 183 174 184 193 193 193 196 200 202 203 206 208 209 212 215 217
349 353 357 359 358 355 350 345 338 331 324 316 311 306 302 301 297 286 267 246 233 229 228 227 225 222 219 217 216 213 211 209 210 212 212 213 214 215 216 217 217 217 215 214 215 213 213 215 214 214 216 215 216 219 219 221 224 224 226 227 226 225 224 224 224 225 222 219 216 211 204 196 187 183 189 192 194 196 194 197 202 204 207 210 210 211 213 216
349 351 355 359 1 358 353 347 339 333 328 323 317 310 307 310 306 295 278 252 232 225 226 225 225 226 223 218 215 213 211 208 209 211 211 211 213 213 215 216 216 217 216 214 214 213 213 214 214 215 217 217 217 218 219 220 223 224 226 228 228 227 227 225 226 227 225 221 219 214 206 200 191 186 190 193 196 200 198 198 201 204 208 211 212 212 213 214
351 350 352 356 359 360 355 349 342 336 333 329 325 318 313 316 315 304 291 267 236 218 212 213 214 221 227 224 217 213 211 208 208 210 210 210 211 211 213 215 216 217 216 214 213 213 213 213 212 213 215 217 218 218 218 219 222 224 226 228 229 230 229 228 227 227 225 224 221 214 209 207 198 188 190 195 200 204 204 203 203 204 208 211 213 214 213 213
353 351 350 352 356 357 355 352 347 341 338 336 333 327 318 318 321 313 300 282 247 218 206 203 201 202 213 223 221 216 213 209 208 209 209 208 209 210 212 213 214 216 216 215 214 213 214 214 212 211 213 215 217 218 218 220 221 223 225 227 229 230 230 230 229 228 227 227 224 217 214 214 208 198 195 199 205 210 211 210 208 208 209 212 214 214 213 214
353 353 350 350 353 355 353 352 351 344 340 341 341 337 329 323 323 321 309 284 247 221 211 209 208 204 202 209 217 217 214 210 209 209 208 207 208 209 211 212 213 214 216 216 214 213 214 214 212 211 213 215 216 217 218 220 221 223 225 226 228 229 230 230 231 230 230 230 227 222 221 221 218 213 208 207 210 215 217 217 215 214 214 215 217 217 215 214
352 353 351 348 351 355 354 351 351 347 343 344 343 341 338 331 326 324 317 291 245 225 222 219 217 216 213 214 221 223 219 212 209 209 208 206 207 209 210 211 213 214 215 216 215 214 214 214 213 211 213 215 216 217 218 220 221 222 224 226 228 229 230 230 231 231 231 232 230 225 224 223 222 222 220 215 212 213 217 220 220 220 220 220 221 220 219 218
351 351 350 348 348 351 354 351 349 346 344 343 342 340 339 336 330 324 318 304 268 240 233 221 214 215 215 214 219 226 226 218 212 210 209 207 207 208 209 211 212 213 215 216 216 215 214 214 213 212 213 214 216 216 217 220 221 223 224 225 227 229 230 231 231 231 232 233 231 226 225 225 223 221 221 219 215 211 213 219 222 222 223 224 223 221 219 220
Height
5889 5888 5887 5887 5886 5885 5885 5884 5884 5884 5883 5883 5883 5883 5883 5882 5882 5881 5881 5881 5881 5881 5881 5881 5881 5881 5880 5880 5880 5879 5879 5880 5880 5881 5882 5883 5883 5884 5885 5886 5886 5887 5888 5889 5890 5891 5892 5893 5894 5895 5896 5897 5899 5900 5901 5901 5902 5902 5903 5903 5904 5904 5904 5905 5905 5905 5906 5906 5907 5907 5907 5907 5907 5907 5906 5906 5907 5907 5907 5908 5908 5908 5908 5908 5908 5909 5909 5910
5887 5887 5886 5885 5885 5884 5884 5883 5883 5882 5882 5882 5882 5881 5881 5881 5880 5880 5880 5880 5880 5880 5880 5880 5880 5880 5880 5879 5879 5878 5878 5878 5879 5879 5880 5881 5882 5882 5883 5884 5884 5884 5885 5887 5888 5889 5890 5891 5892 5893 5894 5895 5897 5898 5899 5900 5901 5902 5902 5903 5903 5904 5904 5904 5904 5904 5905 5906 5906 5907 5907 5907 5907 5907 5906 5906 5906 5907 5907 5907 5908 5908 5907 5907 5908 5908 5909 5910
5885 5885 5884 5884 5883 5883 5882 5882 5881 5881 5881 5881 5880 5880 5879 5879 5878 5878 5878 5878 5879 5879 5879 5878 5878 5878 5878 5879 5878 5878 5877 5877 5877 5878 5879 5879 5880 5881 5882 5883 5883 5883 5883 5884 5885 5886 5887 5888 5889 5891 5892 5893 5895 5897 5898 5899 5900 5900 5900 5902 5903 5903 5903 5903 5903 5904 5905 5905 5906 5907 5907 5907 5907 5907 5906 5906 5907 5907 5907 5907 5907 5907 5907 5907 5907 5908 5909 5909
5883 5883 5882 5881 5881 5881 5880 5880 5879 5879 5879 5879 5879 5879 5878 5877 5877 5876 5876 5877 5877 5877 5877 5877 5877 5877 5877 5877 5877 5877 5877 5876 5876 5876 5877 5878 5878 5879 5881 5881 5881 5882 5882 5883 5884 5885 5886 5887 5888 5889 5890 5891 5893 5895 5897 5898 5899 5899 5899 5900 5902 5902 5902 5903 5903 5903 5904 5905 5906 5906 5907 5907 5907 5907 5907 5907 5907 5907 5907 5907 5907 5907 5907 5907 5907 5908 5908 5909
5881 5880 5880 5879 5879 5878 5878 5878 5877 5877 5877 5877 5877 5877 5877 5876 5875 5874 5874 5875 5875 5876 5875 5875 5875 5875 5875 5876 5876 5876 5876 5875 5875 5875 5875 5876 5877 5878 5879 5879 5880 5880 5881 5882 5883 5884 5885 5886 5888 5889 5890 5891 5893 5894 5896 5896 5897 5897 5897 5899 5900 5901 5901 5902 5902 5903 5904 5905 5905 5906 5907 5906 5907 5907 5907 5906 5906 5906 5907 5906 5906 5906 5906 5907 5907 5907 5907 5908
5878 5878 5877 5877 5876 5876 5876 5875 5875 5875 5875 5875 5875 5875 5875 5874 5873 5873 5873 5873 5874 5874 5874 5873 5873 5874 5873 5874 5875 5875 5875 5875 5874 5873 5874 5875 5875 5876 5877 5878 5878 5879 5880 5881 5882 5883 5884 5885 5887 5888 5890 5891 5893 5894 5894 5895 5896 5896 5896 5898 5899 5900 5901 5901 5902 5903 5903 5904 5905 5906 5906 5906 5906 5907 5907 5906 5906 5906 5906 5906 5906 5905 5905 5906 5906 5907 5907 5907
5876 5875 5875 5874 5874 5874 5873 5873 5873 5872 5872 5873 5873 5873 5872 5872 5871 5871 5872 5872 5872 5872 5872 5872 5871 5872 5872 5872 5872 5873 5874 5874 5873 5872 5872 5873 5873 5874 5875 5876 5877 5878 5879 5880 5881 5882 5883 5885 5886 5887 5888 5890 5891 5892 5893 5894 5895 5895 5895 5897 5898 5899 5900 5901 5902 5903 5903 5904 5904 5905 5905 5906 5906 5906 5906 5906 5906 5906 5906 5906 5905 5904 5905 5905 5905 5906 5906 5906
5874 5873 5872 5872 5871 5871 5871 5870 5870 5870 5870 5870 5871 5870 5869 5869 5869 5869 5870 5870 5870 5870 5870 5870 5870 5870 5870 5870 5871 5871 5872 5872 5871 5871 5871 5871 5871 5872 5873 5874 5875 5876 5877 5878 5879 5880 5881 5883 5884 5885 5887 5888 5889 5890 5891 5893 5894 5894 5894 5895 5897 5898 5899 5900 5902 5902 5903 5903 5904 5904 5904 5905 5905 5906 5906 5906 5906 5905 5905 5905 5905 5904 5904 5904 5905 5905 5906 5906
5871 5871 5870 5869 5869 5869 5868 5868 5867 5867 5867 5867 5868 5867 5866 5866 5866 5867 5867 5868 5868 5868 5868 5868 5868 5868 5868 5868 5869 5870 5871 5870 5870 5870 5870 5870 5870 5871 5871 5872 5873 5874 5875 5876 5877 5878 5879 5881 5882 5883 5885 5885 5886 5888 5889 5890 5892 5892 5892 5894 5896 5897 5899 5900 5901 5901 5902 5902 5903 5903 5904 5905 5905 5905 5905 5906 5905 5905 5905 5905 5904 5903 5903 5904 5904 5904 5905 5905
5869 5868 5867 5867 5867 5866 5866 5865 5865 5864 5864 5865 5865 5864 5864 5863 5864 5864 5864 5865 5865 5865 5866 5866 5866 5866 5866 5866 5867 5868 5869 5868 5868 5868 5869 5869 5868 5869 5870 5870 5871 5872 5873 5874 5875 5877 5878 5879 5879 5880 5881 5882 5884 5885 5887 5888 5890 5891 5891 5893 5895 5897 5898 5899 5900 5901 5901 5902 5902 5903 5903 5904 5904 5904 5905 5905 5905 5905 5904 5904 5904 5903 5903 5903 5903 5903 5903 5904
5866 5865 5865 5864 5864 5864 5863 5863 5862 5862 5862 5862 5862 5861 5861 5861 5861 5861 5861 5862 5862 5863 5863 5863 5864 5864 5864 5864 5865 5866 5866 5866 5866 5866 5867 5867 5867 5867 5868 5869 5869 5870 5871 5872 5873 5874 5875 5876 5876 5878 5879 5881 5882 5883 5884 5886 5888 5889 5890 5891 5893 5895 5897 5898 5899 5900 5900 5901 5902 5902 5903 5903 5903 5903 5903 5904 5904 5904 5904 5904 5904 5903 5902 5902 5902 5902 5902 5903
5862 5861 5861 5861 5861 5861 5861 5860 5859 5859 5859 5859 5859 5859 5858 5858 5858 5858 5858 5858 5859 5860 5860 5860 5861 5861 5861 5862 5862 5863 5864 5864 5864 5864 5864 5865 5866 5866 5866 5867 5868 5868 5869 5870 5871 5871 5872 5873 5874 5876 5877 5879 5881 5881 5882 5884 5886 5887 5888 5890 5892 5894 5896 5897 5899 5900 5900 5901 5901 5902 5902 5903 5903 5902 5902 5903 5903 5903 5903 5903 5903 5903 5902 5902 5901 5901 5901 5902
5858 5858 5857 5857 5857 5857 5857 5857 5856 5856 5856 5856 5856 5856 5855 5855 5855 5855 5855 5855 5856 5857 5857 5857 5858 5858 5859 5859 5860 5861 5861 5861 5862 5862 5862 5863 5864 5864 5865 5865 5866 5866 5867 5867 5868 5869 5870 5871 5873 5874 5875 5877 5878 5878 5880 5883 5884 5885 5887 5889 5890 5893 5895 5896 5897 5899 5899 5900 5901 5901 5902 5902 5902 5902 5901 5902 5902 5902 5902 5902 5902 5902 5902 5901 5901 5901 5901 5901
5854 5853 5853 5852 5852 5853 5853 5853 5852 5852 5852 5852 5852 5852 5852 5852 5852 5852 5852 5852 5853 5853 5853 5854 5854 5855 5856 5856 5857 5859 5858 5859 5859 5859 5860 5860 5861 5862 5863 5863 5863 5864 5865 5865 5866 5867 5868 5869 5871 5871 5873 5874 5875 5877 5879 5881 5883 5884 5885 5888 5889 5891 5893 5894 5896 5898 5898 5899 5900 5900 5900 5901 5901 5901 5901 5901 5901 5902 5902 5901 5901 5901 5901 5901 5901 5900 5900 5900
5849 5849 5848 5848 5848 5848 5849 5848 5848 5847 5847 5848 5848 5849 5849 5849 5849 5849 5849 5849 5849 5850 5850 5851 5851 5852 5853 5852 5854 5856 5856 5856 5857 5857 5858 5858 5859 5860 5861 5861 5861 5862 5863 5863 5864 5865 5866 5867 5868 5870 5871 5872 5873 5876 5878 5879 5881 5882 5883 5886 5888 5890 5891 5893 5894 5896 5897 5898 5899 5899 5899 5900 5900 5900 5900 5900 5901 5901 5901 5901 5901 5901 5901 5901 5901 5900 5900 5900
5845 5844 5843 5843 5842 5843 5843 5843 5843 5843 5842 5843 5843 5844 5844 5845 5845 5845 5845 5846 5846 5847 5847 5847 5848 5848 5850 5849 5850 5852 5853 5853 5854 5855 5855 5855 5856 5857 5858 5859 5859 5860 5861 5862 5862 5863 5864 5865 5866 5868 5870 5871 5873 5874 5875 5877 5878 5880 5882 5885 5886 5888 5890 5891 5892 5893 5895 5896 5898 5898 5898 5898 5898 5898 5899 5899 5899 5900 5900 5900 5900 5900 5900 5900 5900 5900 5900 5900
5839 5838 5838 5837 5837 5837 5838 5838 5838 5838 5837 5838 5838 5839 5839 5840 5841 5841 5841 5842 5842 5843 5843 5844 5844 5845 5846 5846 5846 5848 5850 5850 5851 5852 5852 5852 5853 5855 5855 5856 5857 5858 5858 5859 5860 5861 5862 5863 5865 5866 5868 5869 5871 5871 5872 5874 5876 5878 5881 5882 5884 5885 5887 5889 5890 5891 5893 5895 5896 5897 5896 5897 5897 5897 5898 5898 5898 5899 5899 5898 5898 5899 5900 5900 5900 5900 5900 5900
5834 5833 5832 5831 5831 5831 5832 5832 5833 5832 5832 5832 5833 5833 5834 5835 5836 5836 5837 5838 5838 5839 5839 5840 5841 5841 5843 5842 5842 5844 5846 5847 5848 5849 5849 5849 5851 5852 5852 5853 5854 5855 5856 5857 5858 5859 5860 5861 5863 5864 5865 5866 5867 5868 5870 5873 5875 5877 5879 5880 5882 5884 5885 5887 5887 5889 5891 5893 5895 5895 5896 5896 5896 5896 5896 5897 5898 5898 5898 5898 5898 5898 5898 5899 5899 5900 5900 5900
5828 5827 5826 5825 5824 5825 5826 5826 5826 5826 5826 5826 5827 5828 5829 5829 5830 5831 5832 5833 5834 5834 5835 5836 5837 5838 5839 5839 5838 5840 5841 5843 5844 5846 5846 5847 5847 5848 5849 5850 5852 5853 5854 5855 5856 5857 5858 5859 5860 5861 5863 5864 5865 5867 5869 5871 5873 5875 5877 5878 5880 5882 5884 5885 5885 5886 5889 5891 5893 5894 5894 5894 5894 5895 5895 5895 5896 5897 5897 5898 5898 5898 5898 5898 5899 5899 5899 5899
5823 5822 5820 5819 5818 5818 5819 5819 5819 5820 5820 5820 5821 5822 5823 5823 5824 5825 5827 5827 5829 5830 5830 5832 5833 5833 5835 5835 5835 5836 5837 5838 5839 5842 5843 5843 5844 5845 5846 5848 5849 5850 5852 5853 5854 5855 5856 5857 5858 5860 5861 5862 5864 5866 5867 5869 5871 5873 5874 5876 5879 5880 5882 5883 5882 5884 5887 5888 5890 5892 5892 5892 5893 5893 5894 5894 5895 5896 5897 5897 5897 5897 5897 5897 5898 5898 5899 5899
5817 5816 5815 5813 5812 5811 5811 5812 5812 5812 5813 5814 5814 5815 5816 5817 5817 5818 5821 5822 5823 5824 5825 5826 5828 5830 5831 5831 5831 5831 5832 5834 5835 5837 5839 5839 5840 5841 5843 5845 5846 5848 5849 5850 5851 5852 5853 5855 5857 5857 5858 5859 5860 5862 5864 5865 5868 5870 5872 5874 5876 5877 5880 5881 5879 5881 5884 5885 5888 5889 5890 5891 5891 5892 5892 5893 5894 5895 5896 5896 5896 5896 5896 5897 5897 5897 5897 5898
5811 5810 5809 5807 5805 5805 5805 5804 5804 5805 5806 5807 5808 5808 5809 5810 5810 5812 5814 5816 5817 5818 5820 5821 5823 5826 5826 5825 5826 5826 5827 5830 5831 5832 5834 5835 5836 5838 5841 5842 5843 5845 5846 5846 5848 5849 5852 5854 5855 5854 5855 5856 5857 5858 5860 5862 5864 5867 5869 5870 5873 5876 5878 5878 5877 5880 5882 5882 5885 5886 5887 5889 5889 5889 5891 5892 5893 5893 5894 5895 5895 5895 5895 5896 5896 5896 5896 5896
5806 5805 5804 5802 5800 5799 5798 5797 5797 5797 5798 5799 5800 5801 5802 5802 5803 5805 5807 5809 5811 5811 5813 5816 5817 5820 5820 5820 5821 5821 5824 5826 5826 5828 5830 5831 5833 5835 5836 5838 5840 5841 5841 5843 5846 5847 5850 5852 5851 5850 5851 5852 5853 5855 5856 5858 5860 5862 5864 5866 5870 5873 5874 5876 5876 5877 5878 5879 5882 5883 5884 5887 5887 5888 5890 5891 5891 5891 5892 5893 5893 5894 5895 5895 5895 5894 5894 5894
5800 5799 5798 5796 5794 5792 5792 5791 5790 5790 5790 5791 5792 5793 5795 5795 5795 5797 5799 5802 5806 5806 5806 5808 5812 5814 5814 5815 5815 5816 5820 5821 5821 5824 5826 5826 5829 5830 5832 5835 5836 5836 5839 5842 5842 5844 5847 5847 5846 5847 5848 5849 5850 5851 5852 5854 5856 5859 5861 5863 5868 5869 5870 5873 5871 5871 5874 5876 5879 5880 5881 5883 5885 5886 5888 5889 5889 5889 5890 5891 5892 5893 5893 5894 5894 5895 5894 5894
5794 5793 5791 5790 5788 5786 5786 5784 5783 5783 5783 5783 5784 5785 5787 5787 5788 5790 5791 5793 5798 5801 5800 5800 5804 5807 5809 5810 5810 5811 5814 5815 5817 5820 5821 5822 5824 5825 5828 5830 5830 5833 5837 5838 5838 5840 5842 5843 5843 5844 5845 5846 5848 5849 5851 5852 5854 5856 5858 5861 5865 5865 5866 5868 5867 5869 5873 5874 5876 5877 5876 5879 5882 5884 5886 5885 5885 5886 5888 5889 5890 5891 5892 5893 5894 5895 5896 5895
5786 5785 5783 5782 5781 5779 5778 5778 5776 5776 5775 5775 5776 5778 5778 5779 5780 5781 5783 5785 5788 5793 5795 5794 5795 5798 5803 5805 5804 5805 5806 5810 5813 5813 5815 5818 5819 5821 5823 5824 5827 5830 5833 5834 5833 5836 5838 5840 5841 5841 5842 5844 5845 5847 5849 5850 5851 5853 5856 5859 5860 5860 5863 5865 5866 5868 5870 5871 5872 5870 5872 5876 5879 5881 5881 5880 5881 5883 5885 5887 5889 5890 5891 5892 5894 5895 5895 5895
5776 5776 5775 5772 5771 5771 5770 5770 5769 5769 5768 5767 5768 5770 5770 5771 5772 5773 5775 5776 5778 5783 5787 5788 5788 5791 5795 5798 5799 5798 5798 5805 5808 5806 5810 5814 5814 5816 5818 5820 5824 5827 5829 5829 5829 5833 5836 5837 5838 5839 5840 5842 5843 5846 5847 5847 5849 5851 5853 5855 5856 5858 5860 5862 5863 5864 5865 5868 5867 5864 5869 5872 5873 5876 5877 5877 5879 5881 5882 5885 5887 5889 5890 5891 5892 5893 5894 5895
5766 5766 5766 5762 5761 5761 5760 5761 5761 5760 5760 5759 5760 5761 5762 5763 5764 5766 5767 5767 5769 5774 5778 5780 5782 5784 5787 5790 5793 5792 5792 5799 5802 5801 5805 5809 5809 5811 5813 5816 5821 5823 5824 5824 5827 5833 5834 5833 5836 5837 5837 5838 5842 5844 5843 5843 5846 5848 5849 5851 5853 5855 5857 5858 5859 5859 5861 5862 5860 5862 5866 5867 5868 5874 5874 5874 5877 5878 5880 5884 5885 5887 5888 5889 5890 5891 5893 5893
5754 5755 5754 5752 5750 5749 5749 5750 5750 5751 5752 5751 5751 5752 5753 5754 5756 5757 5758 5758 5761 5766 5769 5772 5775 5777 5778 5781 5785 5786 5787 5791 5794 5795 5798 5801 5804 5806 5808 5813 5816 5817 5817 5819 5824 5827 5827 5829 5831 5830 5831 5835 5839 5838 5837 5840 5842 5843 5845 5848 5850 5851 5852 5854 5853 5855 5857 5855 5855 5860 5863 5861 5864 5870 5871 5871 5873 5876 5879 5883 5884 5886 5887 5887 5888 5890 5891 5892
5743 5742 5742 5741 5739 5737 5737 5737 5738 5740 5741 5742 5742 5743 5744 5744 5747 5747 5747 5751 5755 5757 5760 5762 5764 5768 5770 5773 5776 5780 5782 5783 5787 5790 5791 5794 5799 5801 5803 5807 5809 5810 5811 5814 5818 5820 5822 5825 5824 5824 5827 5832 5833 5832 5833 5836 5838 5839 5841 5843 5845 5845 5847 5848 5849 5852 5852 5849 5852 5857 5859 5858 5860 5865 5868 5868 5870 5875 5879 5881 5882 5883 5884 5885 5887 5888 5889 5891
5729 5727 5726 5727 5725 5724 5725 5725 5725 5727 5729 5731 5732 5733 5734 5734 5736 5736 5738 5745 5748 5747 5749 5750 5753 5759 5762 5765 5768 5772 5775 5776 5779 5782 5783 5787 5791 5793 5796 5799 5801 5804 5805 5808 5813 5815 5817 5821 5820 5821 5826 5828 5828 5828 5830 5833 5834 5835 5838 5839 5840 5842 5843 5844 5846 5848 5847 5846 5850 5855 5858 5857 5857 5862 5866 5865 5868 5874 5877 5879 5880 5881 5883 5884 5885 5886 5888 5889
5713 5711 5710 5710 5709 5709 5710 5710 5711 5713 5715 5717 5719 5722 5723 5723 5724 5726 5731 5737 5736 5735 5738 5741 5745 5750 5754 5757 5760 5764 5768 5770 5772 5775 5777 5780 5783 5787 5792 5794 5796 5799 5801 5806 5810 5811 5814 5817 5818 5820 5824 5825 5824 5825 5828 5829 5830 5832 5834 5835 5836 5839 5840 5842 5844 5845 5844 5846 5850 5853 5856 5855 5855 5860 5864 5863 5867 5872 5874 5876 5878 5879 5881 5882 5883 5884 5886 5888
5699 5697 5695 5694 5693 5692 5693 5693 5694 5697 5699 5703 5705 5708 5710 5711 5713 5717 5721 5723 5722 5725 5730 5733 5737 5741 5745 5749 5751 5755 5760 5762 5765 5768 5770 5773 5776 5781 5786 5789 5791 5794 5798 5802 5805 5806 5809 5811 5813 5815 5819 5821 5820 5823 5825 5827 5828 5829 5831 5833 5835 5836 5837 5839 5841 5843 5844 5846 5848 5850 5852 5852 5853 5858 5860 5862 5866 5869 5872 5874 5876 5877 5879 5880 5881 5883 5884 5886
5686 5684 5681 5679 5678 5678 5677 5677 5678 5679 5682 5686 5690 5693 5694 5698 5703 5705 5706 5707 5712 5718 5721 5725 5729 5732 5736 5739 5742 5747 5751 5753 5758 5760 5762 5765 5767 5772 5777 5780 5784 5788 5792 5794 5797 5801 5803 5805 5810 5814 5817 5819 5819 5821 5824 5825 5826 5827 5830 5832 5832 5833 5836 5838 5840 5841 5843 5845 5846 5848 5850 5851 5853 5854 5857 5861 5864 5866 5869 5872 5874 5875 5877 5879 5880 5880 5882 5884
5676 5672 5670 5667 5664 5663 5662 5662 5662 5663 5665 5668 5673 5676 5679 5685 5689 5688 5690 5696 5703 5708 5711 5716 5720 5723 5727 5729 5733 5739 5741 5744 5750 5752 5754 5757 5761 5765 5770 5774 5778 5782 5784 5786 5791 5795 5798 5801 5806 5811 5814 5816 5817 5818 5820 5821 5822 5824 5826 5826 5828 5833 5836 5836 5837 5839 5841 5842 5843 5845 5847 5849 5851 5853 5855 5858 5861 5863 5866 5869 5871 5873 5875 5877 5878 5879 5880 5882
5669 5663 5660 5656 5653 5651 5648 5647 5647 5649 5650 5652 5657 5661 5664 5668 5669 5671 5678 5686 5691 5697 5702 5707 5709 5712 5716 5719 5723 5728 5731 5736 5741 5744 5747 5751 5754 5757 5760 5765 5770 5773 5776 5780 5785 5790 5793 5797 5799 5804 5808 5810 5811 5814 5815 5817 5818 5820 5821 5823 5828 5832 5831 5832 5833 5836 5837 5838 5841 5843 5845 5847 5849 5851 5853 5856 5859 5861 5863 5866 5869 5871 5873 5874 5875 5877 5879 5881
5663 5657 5652 5648 5644 5641 5638 5636 5635 5636 5637 5638 5641 5645 5648 5651 5652 5657 5666 5673 5678 5685 5691 5694 5697 5700 5704 5707 5711 5716 5722 5728 5732 5736 5740 5742 5744 5747 5751 5756 5761 5765 5770 5774 5779 5784 5789 5791 5794 5799 5803 5805 5808 5809 5808 5811 5814 5814 5817 5822 5826 5824 5824 5827 5829 5831 5833 5835 5839 5841 5842 5845 5847 5850 5851 5853 5856 5858 5861 5864 5867 5869 5870 5871 5873 5876 5878 5879
5656 5650 5644 5639 5636 5633 5630 5627 5626 5625 5626 5627 5628 5630 5633 5635 5638 5644 5651 5658 5666 5671 5676 5681 5685 5688 5692 5695 5699 5706 5715 5719 5721 5727 5731 5732 5735 5738 5743 5749 5754 5760 5765 5770 5773 5777 5782 5785 5787 5794 5799 5801 5803 5802 5801 5805 5807 5809 5814 5818 5817 5818 5821 5824 5825 5828 5832 5833 5837 5839 5841 5843 5846 5848 5850 5852 5854 5856 5859 5861 5864 5866 5867 5869 5872 5874 5876 5878
5650 5643 5637 5631 5627 5624 5622 5620 5618 5618 5618 5618 5618 5619 5620 5622 5626 5631 5636 5644 5651 5656 5661 5667 5672 5676 5680 5684 5689 5697 5704 5706 5710 5717 5719 5720 5726 5731 5736 5741 5747 5753 5759 5763 5766 5769 5776 5780 5781 5787 5793 5794 5795 5794 5795 5800 5802 5805 5808 5809 5810 5814 5819 5821 5823 5827 5830 5832 5835 5837 5839 5841 5843 5845 5847 5849 5851 5854 5856 5858 5860 5863 5864 5867 5870 5872 5874 5876
5645 5638 5630 5624 5620 5616 5614 5613 5612 5611 5611 5611 5611 5610 5610 5612 5615 5619 5624 5630 5636 5641 5647 5653 5658 5663 5669 5674 5679 5687 5692 5695 5701 5707 5708 5712 5719 5724 5729 5734 5740 5747 5752 5756 5760 5763 5770 5774 5775 5780 5785 5786 5788 5789 5793 5796 5797 5800 5803 5803 5806 5811 5815 5817 5821 5824 5826 5830 5833 5834 5837 5839 5840 5841 5844 5846 5848 5850 5852 5855 5857 5859 5861 5864 5867 5870 5872 5874
5640 5633 5624 5617 5612 5608 5606 5606 5606 5606 5606 5606 5605 5604 5603 5604 5606 5610 5613 5617 5622 5627 5633 5639 5645 5651 5657 5662 5668 5675 5682 5686 5692 5696 5700 5706 5711 5715 5721 5726 5733 5740 5745 5750 5753 5755 5762 5768 5769 5773 5778 5781 5784 5787 5790 5791 5793 5798 5801 5802 5806 5811 5813 5815 5817 5820 5824 5828 5831 5833 5835 5837 5838 5839 5841 5843 5845 5847 5849 5851 5853 5856 5858 5861 5864 5867 5870 5872
5635 5627 5619 5611 5606 5602 5601 5602 5601 5601 5601 5601 5600 5599 5598 5597 5599 5602 5604 5606 5610 5614 5619 5626 5633 5639 5645 5651 5657 5664 5670 5675 5681 5686 5691 5697 5701 5707 5714 5719 5725 5732 5737 5741 5744 5748 5754 5760 5763 5767 5773 5778 5779 5780 5784 5786 5790 5795 5797 5799 5803 5807 5810 5811 5813 5818 5822 5826 5829 5832 5834 5836 5837 5838 5839 5840 5842 5843 5845 5848 5850 5853 5855 5858 5861 5864 5867 5869
5631 5622 5614 5607 5603 5600 5599 5599 5598 5597 5597 5596 5595 5595 5594 5593 5593 5594 5596 5598 5601 5603 5608 5615 5621 5627 5633 5639 5645 5653 5660 5665 5671 5676 5681 5688 5694 5700 5706 5711 5717 5722 5728 5731 5735 5742 5748 5753 5758 5762 5766 5771 5771 5772 5778 5782 5784 5787 5789 5792 5797 5800 5804 5806 5809 5815 5819 5822 5825 5828 5832 5835 5835 5836 5838 5838 5839 5841 5844 5846 5849 5851 5853 5855 5858 5861 5863 5866
5629 5621 5613 5607 5603 5600 5598 5597 5596 5595 5594 5593 5592 5591 5590 5589 5588 5588 5589 5590 5592 5595 5598 5604 5609 5614 5621 5627 5634 5642 5649 5656 5662 5666 5672 5679 5686 5692 5697 5702 5708 5712 5718 5723 5728 5737 5742 5745 5752 5755 5757 5761 5763 5766 5772 5774 5776 5780 5783 5787 5791 5795 5798 5800 5804 5810 5813 5816 5820 5823 5829 5832 5832 5833 5835 5836 5838 5841 5843 5845 5847 5849 5851 5853 5856 5858 5860 5863
5628 5620 5612 5606 5603 5600 5598 5597 5595 5594 5592 5590 5589 5588 5586 5585 5583 5583 5583 5583 5586 5588 5591 5595 5599 5604 5611 5618 5625 5633 5640 5646 5651 5656 5664 5671 5677 5683 5688 5693 5699 5704 5711 5717 5723 5730 5734 5737 5743 5746 5749 5755 5757 5760 5765 5768 5771 5775 5778 5781 5786 5790 5792 5796 5800 5804 5807 5811 5816 5820 5824 5827 5829 5831 5832 5834 5836 5839 5841 5843 5845 5847 5849 5851 5853 5855 5857 5860
5626 5620 5613 5607 5603 5600 5598 5596 5594 5593 5591 5589 5587 5585 5584 5582 5580 5579 5578 5579 5581 5582 5585 5588 5591 5596 5602 5608 5616 5624 5631 5637 5641 5647 5654 5660 5666 5674 5679 5685 5691 5696 5703 5710 5715 5721 5726 5729 5735 5740 5743 5748 5751 5754 5760 5764 5766 5769 5772 5776 5780 5784 5788 5792 5796 5799 5804 5809 5813 5817 5821 5824 5826 5829 5830 5832 5834 5836 5838 5841 5842 5845 5846 5848 5850 5852 5854 5857
5623 5618 5613 5609 5604 5600 5597 5595 5593 5591 5589 5587 5585 5583 5581 5579 5578 5576 5575 5575 5576 5578 5580 5584 5587 5590 5594 5599 5606 5614 5620 5627 5633 5637 5644 5650 5657 5665 5670 5675 5682 5687 5694 5701 5706 5712 5718 5722 5729 5735 5738 5741 5745 5749 5755 5759 5761 5764 5768 5771 5775 5780 5784 5789 5792 5795 5801 5806 5809 5814 5819 5821 5824 5826 5827 5829 5831 5833 5836 5838 5840 5842 5843 5845 5847 5849 5852 5854
5622 5616 5611 5607 5604 5600 5597 5595 5592 5590 5587 5585 5583 5581 5579 5577 5576 5574 5573 5572 5572 5574 5577 5580 5583 5586 5588 5592 5598 5604 5611 5619 5625 5628 5634 5641 5648 5656 5661 5667 5673 5679 5685 5692 5698 5705 5710 5714 5721 5727 5731 5736 5740 5744 5749 5753 5756 5760 5764 5767 5771 5775 5780 5784 5787 5791 5797 5801 5805 5812 5817 5819 5822 5825 5827 5828 5830 5831 5833 5835 5837 5839 5841 5843 5845 5847 5849 5850
5621 5616 5610 5606 5602 5599 5596 5593 5591 5588 5586 5584 5581 5579 5577 5576 5574 5572 5571 5570 5570 5571 5574 5577 5580 5583 5585 5587 5591 5596 5603 5610 5614 5617 5624 5632 5640 5647 5652 5657 5664 5670 5677 5683 5690 5697 5702 5706 5713 5720 5725 5729 5733 5738 5743 5747 5751 5755 5758 5762 5766 5770 5774 5779 5782 5787 5792 5796 5801 5809 5813 5815 5819 5823 5825 5826 5827 5828 5830 5832 5835 5837 5838 5840 5842 5843 5845 5846
5620 5615 5610 5605 5602 5598 5595 5592 5589 5587 5585 5583 5580 5578 5576 5575 5573 5571 5570 5569 5568 5569 5571 5573 5575 5578 5581 5583 5585 5588 5592 5598 5602 5607 5615 5624 5631 5636 5641 5647 5654 5662 5669 5675 5682 5689 5694 5698 5707 5715 5719 5723 5727 5732 5737 5741 5746 5750 5753 5756 5760 5764 5769 5773 5776 5782 5787 5790 5798 5806 5809 5812 5817 5820 5823 5824 5825 5826 5827 5829 5831 5833 5835 5837 5838 5840 5842 5844
5618 5613 5609 5604 5601 5598 5595 5592 5589 5586 5584 5582 5579 5577 5575 5574 5572 5571 5569 5567 5567 5568 5569 5570 5572 5575 5578 5580 5581 5582 5584 5589 5594 5600 5608 5616 5622 5627 5633 5641 5649 5656 5661 5666 5673 5680 5685 5692 5701 5708 5712 5716 5720 5725 5730 5734 5739 5743 5746 5751 5755 5758 5763 5767 5771 5777 5782 5786 5794 5801 5804 5809 5814 5816 5819 5821 5823 5824 5825 5827 5828 5830 5832 5834 5836 5837 5840 5841
5615 5611 5607 5603 5599 5596 5594 5591 5588 5586 5583 5581 5579 5577 5575 5573 5571 5570 5568 5567 5566 5567 5567 5568 5570 5572 5574 5576 5578 5579 5580 5584 5590 5594 5600 5608 5614 5620 5628 5635 5642 5648 5653 5659 5665 5671 5678 5686 5693 5699 5705 5709 5712 5718 5724 5728 5732 5736 5741 5746 5750 5753 5758 5762 5767 5772 5777 5781 5788 5795 5799 5803 5808 5811 5814 5816 5819 5822 5823 5824 5826 5827 5829 5831 5833 5835 5837 5839